[[{"header":{"parameterUnit":"m.s-1","parameterCategory":1,"la1":30.2991,"la2":30.254,"lo1":-89.0895,"lo2":-89.0444,"dy":0.0017,"dx":0.0017,"nx":28,"ny":28,"refTime":"2024-04-21T09:00:00:Z","depth":0,"parameterNumber":2,"parameterNumberName":"U-component_of_WINDS"},"data":[0,0,0,0,0,0,0,0,0,0,0,0,0,0,0,0,0,0,0,0,0,0,0,0,0,0,0,0,0,0,0,0,0,0,0,0,0,0,0,0,0,0,0,0,0,0,0,0,0,0,0,0,0,0,0,0,0,0,-0.6169,-0.6169,0,-0.6122,-0.6122,-0.6121,-0.612,-0.612,-0.6121,-0.6121,-0.6069,-0.6068,-0.6066,0,0,0,0,0,0,0,0,0,0,0,0,0,-0.6251,-0.625,-0.6169,-0.6168,-0.6168,-0.6123,-0.6122,-0.6121,-0.612,-0.612,-0.6121,-0.6122,-0.607,-0.6068,-0.6066,0,0,0,0,0,0,0,0,0,0,0,0,0,-0.6211,-0.6249,-0.6169,-0.6162,-0.6161,-0.6123,-0.6122,-0.6121,-0.612,-0.612,-0.6121,-0.6122,-0.6071,-0.6068,-0.6065,-0.603,0,0,-0.6056,-0.6055,0,0,0,0,0,0,0,0,-0.6213,-0.6208,-0.6163,-0.6162,-0.6161,-0.6128,-0.6132,-0.609,-0.6119,-0.6135,-0.6122,-0.6122,-0.6088,-0.6084,-0.6073,-0.6028,-0.6026,-0.6056,-0.6054,-0.6053,-0.6052,0,0,0,0,0,0,0,-0.6216,-0.621,-0.6151,-0.6163,-0.6161,-0.6159,-0.6154,-0.6124,-0.6107,-0.6134,-0.6134,-0.6128,-0.6087,-0.6076,-0.6072,-0.6025,-0.6056,-0.6054,-0.6052,-0.6051,-0.5945,-0.5944,0,0,0,0,0,0,-0.6221,-0.6212,-0.6152,-0.6149,-0.619,-0.6157,-0.6151,-0.6138,-0.6107,-0.6104,-0.6128,-0.6128,-0.608,-0.6075,-0.607,-0.6025,-0.6053,-0.6051,-0.6049,-0.5946,-0.5945,-0.5944,0,0,0,0,0,0,-0.6223,-0.6216,-0.6154,-0.6181,-0.6173,-0.6155,-0.6139,-0.6136,-0.6125,-0.6103,-0.6099,-0.6119,-0.6081,-0.6074,-0.604,-0.6023,-0.6049,-0.6047,-0.5948,-0.5946,-0.5944,-0.5936,0,0,0,0,0,0,-0.6225,-0.6216,-0.6204,-0.618,-0.6171,-0.6126,-0.6138,-0.6135,-0.612,-0.6121,-0.6094,-0.609,-0.6081,-0.6044,-0.6037,-0.602,-0.6044,-0.5949,-0.5947,-0.5945,-0.5938,-0.5934,-0.5931,0,0,0,0,0,-0.6228,-0.6204,-0.6204,-0.6197,-0.6156,-0.6125,-0.612,-0.6111,-0.6119,-0.6105,-0.6091,-0.6091,-0.6026,-0.6041,-0.6032,-0.6014,-0.595,-0.5947,-0.5945,-0.5939,-0.5935,-0.5931,0,0,0,0,0,0,-0.6225,-0.62,-0.62,-0.6168,-0.6149,-0.6125,-0.6108,-0.6107,-0.6084,-0.6086,-0.6074,-0.6068,-0.6033,-0.602,-0.6037,-0.5977,-0.5989,-0.5985,-0.5987,-0.5983,-0.598,-0.5983,-0.6042,0,0,0,0,0,-0.6221,-0.62,-0.6178,-0.6151,-0.6142,-0.6127,-0.6113,-0.6108,-0.6087,-0.6079,-0.6062,-0.604,-0.6015,-0.5998,-0.5974,-0.5936,-0.5928,-0.5919,-0.5916,-0.5913,-0.5909,-0.5885,-0.588,-0.5936,-0.5936,-0.5936,0,0,-0.6211,-0.6195,-0.6182,-0.615,-0.6135,-0.6111,-0.612,-0.6095,-0.6076,-0.6074,-0.6041,-0.6027,-0.6002,-0.5966,-0.5949,-0.5954,-0.5892,-0.591,-0.5908,-0.5906,-0.5882,-0.5877,-0.5872,-0.5934,-0.5934,-0.5935,0,0,-0.6182,-0.6169,-0.6144,-0.6128,-0.6105,-0.6094,-0.6088,-0.6064,-0.6056,-0.6022,-0.6019,-0.5996,-0.5953,-0.5935,-0.592,-0.5881,-0.5879,-0.5873,-0.5856,-0.5833,-0.5829,-0.5825,-0.5808,-0.5803,-0.5869,-0.5869,-0.5869,0,-0.6173,-0.6138,-0.613,-0.6105,-0.609,-0.6087,-0.606,-0.6045,-0.6015,-0.6003,-0.601,-0.5954,-0.5938,-0.5895,-0.5885,-0.5874,-0.5864,-0.5876,-0.583,-0.5826,-0.5822,-0.5806,-0.5801,-0.5869,-0.5869,-0.5869,-0.5869,0,-0.6127,-0.6103,-0.6085,-0.6056,-0.6039,-0.6013,-0.5999,-0.5983,-0.5978,-0.5966,-0.593,-0.591,-0.588,-0.587,-0.5865,-0.5825,-0.5829,-0.5833,-0.5844,-0.5816,-0.5801,-0.5795,-0.5868,-0.5868,-0.5868,-0.5868,0,0,-0.6095,-0.6061,-0.6055,-0.604,-0.6014,-0.5994,-0.5966,-0.5938,-0.5923,-0.5901,-0.5876,-0.5839,-0.5842,-0.5825,-0.5818,-0.5798,-0.5765,-0.5804,-0.5803,-0.5795,-0.5717,-0.5713,-0.5706,-0.5764,-0.5763,-0.5762,-0.5718,0,-0.6061,-0.6014,-0.6005,-0.5963,-0.5939,-0.5935,-0.5911,-0.5891,-0.5878,-0.5855,-0.584,-0.5813,-0.5821,-0.581,-0.579,-0.5773,-0.5749,-0.5776,-0.5738,-0.5737,-0.5743,-0.5699,-0.5695,-0.5655,-0.5713,-0.5712,-0.5711,0,-0.6016,-0.5993,-0.5949,-0.5923,-0.5913,-0.5892,-0.5864,-0.5842,-0.5818,-0.581,-0.579,-0.5784,-0.5753,-0.5766,-0.5721,-0.574,-0.5724,-0.5713,-0.5711,-0.5706,-0.5721,-0.569,-0.5642,-0.5635,-0.5702,-0.5703,-0.5703,0,-0.5994,-0.5953,-0.592,-0.5909,-0.5879,-0.5863,-0.5849,-0.5826,-0.5809,-0.5784,-0.5772,-0.5743,-0.5727,-0.5704,-0.569,-0.5701,-0.5644,-0.5657,-0.5635,-0.5635,-0.5622,-0.5623,-0.5569,-0.5615,-0.5615,-0.5615,-0.5615,0,-0.5956,-0.5929,-0.591,-0.589,-0.5858,-0.5847,-0.5815,-0.5801,-0.578,-0.5756,-0.5751,-0.5727,-0.5711,-0.5684,-0.5672,-0.5635,-0.5628,-0.5619,-0.5616,-0.5619,-0.562,-0.5607,-0.5608,-0.5613,-0.5613,-0.5614,-0.5614,0,-0.5926,-0.5913,-0.5877,-0.5851,-0.5844,-0.5822,-0.5798,-0.5777,-0.5765,-0.5733,-0.5725,-0.5704,-0.5673,-0.5656,-0.5617,-0.5609,-0.5566,-0.5565,-0.5574,-0.5573,-0.555,-0.5552,-0.5484,-0.5474,-0.5529,-0.5528,-0.5528,0,-0.5903,-0.5881,-0.5853,-0.5837,-0.5823,-0.5797,-0.5779,-0.5766,-0.5748,-0.5717,-0.5699,-0.5667,-0.5641,-0.559,-0.557,-0.5539,-0.5536,-0.5514,-0.5531,-0.5533,-0.5533,-0.5533,-0.553,-0.5511,-0.5511,-0.551,-0.551,0,-0.5861,-0.5855,-0.583,-0.5803,-0.5782,-0.5759,-0.5737,-0.5723,-0.5706,-0.5685,-0.5653,-0.5633,-0.5592,-0.5559,-0.5526,-0.551,-0.5505,-0.5505,-0.5497,-0.5499,-0.5504,-0.5498,-0.5564,-0.5506,-0.5506,-0.5507,-0.5507,-0.5507,-0.5832,-0.5812,-0.5788,-0.576,-0.5742,-0.5721,-0.5699,-0.5683,-0.5657,-0.5623,-0.5617,-0.5582,-0.5555,-0.5511,-0.5493,-0.5464,-0.5468,-0.5458,-0.5455,-0.5452,-0.545,-0.551,-0.5458,-0.5458,-0.5458,-0.5458,-0.5458,0,-0.5788,-0.5772,-0.5747,-0.5715,-0.5692,-0.5693,-0.5667,-0.5647,-0.5617,-0.5594,-0.5568,-0.5529,-0.5497,-0.5474,-0.544,-0.5421,-0.5418,-0.5412,-0.5413,-0.5408,-0.5449,-0.5458,-0.5415,-0.5415,-0.5415,-0.5415,-0.5415,-0.5415,-0.5762,-0.5727,-0.5718,-0.5673,-0.5657,-0.5624,-0.5609,-0.5588,-0.5569,-0.5527,-0.55,-0.5486,-0.5461,-0.5426,-0.5395,-0.5389,-0.5375,-0.5369,-0.5363,-0.5401,-0.5406,-0.541,-0.5418,-0.5367,-0.5367,-0.5323,-0.5323,-0.5323]},{"header":{"parameterUnit":"m.s-1","parameterCategory":1,"la1":30.2991,"la2":30.254,"lo1":-89.0895,"lo2":-89.0444,"dy":0.0017,"dx":0.0017,"nx":28,"ny":28,"refTime":"2024-04-21T09:00:00:Z","depth":0,"parameterNumber":3,"parameterNumberName":"V-component_of_WINDS"},"data":[0,0,0,0,0,0,0,0,0,0,0,0,0,0,0,0,0,0,0,0,0,0,0,0,0,0,0,0,0,0,0,0,0,0,0,0,0,0,0,0,0,0,0,0,0,0,0,0,0,0,0,0,0,0,0,0,0,0,-7.4255,-7.4257,0,-7.4429,-7.4431,-7.4433,-7.4405,-7.4402,-7.4399,-7.4396,-7.4568,-7.4576,-7.4583,0,0,0,0,0,0,0,0,0,0,0,0,0,-7.3893,-7.3899,-7.4255,-7.4257,-7.4259,-7.4429,-7.4431,-7.4433,-7.4406,-7.4402,-7.4398,-7.4395,-7.4566,-7.4575,-7.4584,0,0,0,0,0,0,0,0,0,0,0,0,0,-7.4057,-7.3902,-7.4254,-7.4266,-7.4269,-7.4428,-7.4431,-7.4434,-7.4406,-7.4402,-7.4398,-7.4393,-7.4563,-7.4574,-7.4585,-7.4742,0,0,-7.4618,-7.4623,0,0,0,0,0,0,0,0,-7.4047,-7.407,-7.4262,-7.4265,-7.4269,-7.4391,-7.4367,-7.4537,-7.4408,-7.4354,-7.4396,-7.4391,-7.4513,-7.4527,-7.457,-7.475,-7.4757,-7.4619,-7.4626,-7.4631,-7.4634,0,0,0,0,0,0,0,-7.4036,-7.4062,-7.4323,-7.4265,-7.4269,-7.4261,-7.4279,-7.4399,-7.4456,-7.4358,-7.4357,-7.4378,-7.4513,-7.4559,-7.4574,-7.476,-7.4619,-7.4629,-7.4636,-7.464,-7.5079,-7.5084,0,0,0,0,0,0,-7.4022,-7.4053,-7.4318,-7.4329,-7.4145,-7.4271,-7.4291,-7.4356,-7.4455,-7.4465,-7.4382,-7.4376,-7.4543,-7.4561,-7.4579,-7.4771,-7.4631,-7.4641,-7.4647,-7.5074,-7.508,-7.5086,0,0,0,0,0,0,-7.4014,-7.4046,-7.4311,-7.4191,-7.4224,-7.4282,-7.4355,-7.4362,-7.4408,-7.4472,-7.4482,-7.4418,-7.454,-7.4564,-7.4703,-7.4777,-7.4646,-7.4656,-7.5068,-7.5076,-7.5083,-7.5155,0,0,0,0,0,0,-7.4004,-7.4044,-7.4105,-7.4192,-7.423,-7.4433,-7.4359,-7.4368,-7.4427,-7.4422,-7.4509,-7.4519,-7.4538,-7.4686,-7.4714,-7.479,-7.4665,-7.5062,-7.5072,-7.5081,-7.5147,-7.5164,-7.518,0,0,0,0,0,-7.3991,-7.4117,-7.4108,-7.414,-7.4309,-7.4437,-7.4459,-7.448,-7.4434,-7.4495,-7.4537,-7.4516,-7.4764,-7.4701,-7.4731,-7.4812,-7.5057,-7.5069,-7.508,-7.5139,-7.5161,-7.5179,0,0,0,0,0,0,-7.4034,-7.4128,-7.412,-7.4277,-7.435,-7.4432,-7.4511,-7.4502,-7.4587,-7.4578,-7.4598,-7.4618,-7.4759,-7.4799,-7.4727,-7.497,-7.4904,-7.4922,-7.4939,-7.496,-7.4976,-7.4964,-7.4674,0,0,0,0,0,-7.4062,-7.416,-7.4237,-7.4368,-7.4405,-7.4452,-7.4509,-7.4519,-7.4594,-7.4624,-7.4675,-7.4747,-7.4841,-7.4903,-7.4993,-7.5152,-7.5171,-7.5223,-7.5239,-7.5252,-7.5268,-7.5356,-7.538,-7.5123,-7.5123,-7.5123,0,0,-7.412,-7.4184,-7.4244,-7.4378,-7.4436,-7.4536,-7.4478,-7.4586,-7.466,-7.4639,-7.4774,-7.4815,-7.4896,-7.5047,-7.5115,-7.5084,-7.5343,-7.5267,-7.5277,-7.5285,-7.537,-7.5394,-7.5416,-7.5131,-7.513,-7.5128,0,0,-7.4278,-7.4336,-7.4453,-7.4512,-7.4601,-7.4631,-7.4659,-7.4744,-7.4771,-7.4908,-7.4895,-7.4982,-7.5143,-7.5203,-7.5254,-7.5436,-7.542,-7.5464,-7.5551,-7.5637,-7.5657,-7.5675,-7.574,-7.5764,-7.5479,-7.548,-7.548,0,-7.4338,-7.4491,-7.4513,-7.4624,-7.4683,-7.4672,-7.479,-7.4846,-7.4958,-7.4999,-7.4963,-7.5167,-7.522,-7.5385,-7.543,-7.5471,-7.5503,-7.5454,-7.5653,-7.5671,-7.5688,-7.5751,-7.5775,-7.5484,-7.5484,-7.5483,-7.5483,0,-7.4561,-7.4667,-7.475,-7.4863,-7.4931,-7.5045,-7.5083,-7.515,-7.5154,-7.5188,-7.5328,-7.5392,-7.5496,-7.5535,-7.554,-7.5701,-7.5679,-7.5648,-7.5582,-7.5717,-7.5776,-7.58,-7.5491,-7.549,-7.5488,-7.5487,0,0,-7.4749,-7.4874,-7.4905,-7.4956,-7.5054,-7.5135,-7.5248,-7.5352,-7.5409,-7.5487,-7.5582,-7.572,-7.5692,-7.575,-7.5761,-7.5837,-7.5978,-7.5796,-7.5798,-7.5828,-7.616,-7.6184,-7.6211,-7.5968,-7.5973,-7.5977,-7.6154,0,-7.4917,-7.5119,-7.5143,-7.5322,-7.5421,-7.5412,-7.551,-7.558,-7.5615,-7.5702,-7.574,-7.5838,-7.5793,-7.5829,-7.5903,-7.5945,-7.6045,-7.5932,-7.6056,-7.606,-7.6036,-7.6242,-7.6267,-7.6431,-7.6177,-7.6181,-7.6184,0,-7.5139,-7.5227,-7.5417,-7.5503,-7.5545,-7.5633,-7.5731,-7.5815,-7.5893,-7.5914,-7.598,-7.5982,-7.6097,-7.6027,-7.6186,-7.611,-7.6161,-7.619,-7.6196,-7.6209,-7.613,-7.626,-7.6484,-7.6509,-7.622,-7.6217,-7.6215,0,-7.5258,-7.5423,-7.5559,-7.5603,-7.5706,-7.5769,-7.5814,-7.5889,-7.5951,-7.6035,-7.6075,-7.6172,-7.6224,-7.6298,-7.6325,-7.6272,-7.6483,-7.6416,-7.6503,-7.6502,-7.6547,-7.6544,-7.6783,-7.658,-7.658,-7.6579,-7.6579,0,-7.5443,-7.5559,-7.5614,-7.5697,-7.5828,-7.5854,-7.5982,-7.6024,-7.6091,-7.6182,-7.6179,-7.6263,-7.6294,-7.6383,-7.6405,-7.6534,-7.6557,-7.6576,-7.658,-7.6577,-7.6575,-7.6611,-7.66,-7.6586,-7.6584,-7.6583,-7.6582,0,-7.5598,-7.5639,-7.5786,-7.5873,-7.5898,-7.599,-7.6064,-7.6144,-7.6178,-7.6293,-7.6321,-7.6375,-7.648,-7.6515,-7.6641,-7.6655,-7.6806,-7.68,-7.678,-7.6781,-7.6866,-7.6858,-7.7137,-7.7175,-7.6947,-7.6949,-7.6951,0,-7.5713,-7.5803,-7.5901,-7.5963,-7.6011,-7.611,-7.6174,-7.6203,-7.6269,-7.6367,-7.6435,-7.654,-7.6626,-7.6794,-7.6843,-7.6939,-7.6936,-7.7027,-7.695,-7.6944,-7.6938,-7.6933,-7.6942,-7.7041,-7.7044,-7.7046,-7.7047,0,-7.5913,-7.593,-7.6023,-7.6125,-7.6202,-7.6282,-7.6359,-7.6409,-7.645,-7.6524,-7.6633,-7.67,-7.683,-7.6934,-7.7034,-7.7078,-7.707,-7.7071,-7.7097,-7.7094,-7.7079,-7.7089,-7.682,-7.7065,-7.7063,-7.7062,-7.7061,-7.706,-7.6053,-7.6133,-7.6215,-7.6319,-7.6381,-7.6454,-7.6535,-7.658,-7.6673,-7.6783,-7.6794,-7.6912,-7.6989,-7.7122,-7.7172,-7.7263,-7.7237,-7.7273,-7.7283,-7.7291,-7.7299,-7.7065,-7.7281,-7.728,-7.728,-7.7279,-7.7279,0,-7.6254,-7.6307,-7.6402,-7.6513,-7.6595,-7.6582,-7.6668,-7.6736,-7.6841,-7.6915,-7.7,-7.7126,-7.7227,-7.7285,-7.7386,-7.7448,-7.7447,-7.7474,-7.747,-7.748,-7.7316,-7.7284,-7.7473,-7.7473,-7.7473,-7.7473,-7.7473,-7.7473,-7.6368,-7.6504,-7.653,-7.6697,-7.6748,-7.6866,-7.6916,-7.6983,-7.7042,-7.7184,-7.7269,-7.7307,-7.7375,-7.7481,-7.7573,-7.7588,-7.7625,-7.7655,-7.7667,-7.7512,-7.7492,-7.7473,-7.7443,-7.7663,-7.7663,-7.7824,-7.7825,-7.7826]}]]